Location: Unspecified
(0.0000°N, 0.0000°E)
Time: 17:05:31
(UTC+00:00)

SRMSAT - Pass Details

Date: 07 June 2020
Orbit: 848 x 866 km, 20.0° (Epoch: 06 July)

Event Time Altitude Azimuth Distance (km) Brightness Sun altitude
Exits shadow 05:11:02 - 208° (SSW) 2,817 ? -11.0°
Reaches altitude 10° 05:13:17 10° 189° (S) 2,494 ? -10.5°
Maximum altitude 05:14:53 11° 174° (S) 2,422 ? -10.1°
Drops below altitude 10° 05:16:29 10° 158° (SSE) 2,496 ? -9.8°
Sets 05:21:24 0° 123° (ESE) 3,433 ? -8.6°
